Location: Unspecified
(40.7945°N, 111.1337°W)
Time: 12:19:50
(UTC-06:00)

Altair - Pass Details

Date: 25 June 2019
Orbit: 1501 x 1683 km, 47.2° (Epoch: 15 July)

Event Time Altitude Azimuth Distance (km) Brightness Sun altitude
Rises 01:42:06 0° 296° (WNW) 4,812 10.4 -25.7°
Reaches altitude 10° 01:45:10 10° 296° (WNW) 3,848 9.8 -25.7°
Maximum altitude 01:55:07 89° 211° (SSW) 1,662 7.5 -25.5°
Drops below altitude 10° 02:05:17 10° 121° (ESE) 3,935 9.4 -25.2°
Sets 02:08:27 0° 121° (ESE) 4,924 10.0 -25.1°
